Weather Roundup
Issued by NWS

Home | Current Version | Previous Version | Text Only | Print | Product List | Glossary On
Versions: 1 2 3 4 5 6 7 8 9 10 11 12 13 14 15 16 17 18 19 20 21 22 23 24 25 26 27 28 29 30 31 32 33 34 35 36 37 38 39 40 41 42 43 44 45 46 47 48 49 50
706
NZUS93 KARX 270959
HRRWXR

CURRENT HOURLY OBSERVATIONS ACROSS
MUCH OF THE UPPER MISSISSIPPI VALLEY
NATIONAL WEATHER SERVICE LA CROSSE WI
500 AM CDT SAT MAY 27 2017


...SOUTHEAST MINNESOTA...


CITY           SKY/WX    TMP DP  RH WIND       PRES   REMARKS
ROCHESTER      CLEAR     52  48  86 W8        29.89S
ROCHESTER/MAYO FAIR      57  48  72 CALM      29.89S
WINONA         CLEAR     55  54  94 CALM      29.88R
AUSTIN         CLEAR     50  48  93 CALM      29.88F
ALBERT LEA     CLEAR     54  50  87 CALM      29.89S
DODGE CENTER   CLEAR     52  46  82 W3        29.89S
PRESTON        CLEAR     55  53  94 SW5       29.89S
OWATONNA       CLEAR     50  46  87 CALM      29.89S
FARIBAULT      PTCLDY    50  48  93 CALM      29.88F
$$

...ELSEWHERE IN MINNESOTA...


CITY           SKY/WX    TMP DP  RH WIND       PRES   REMARKS
MINNEAPOLIS    CLEAR     56  47  71 CALM      29.87S
INTNL FALLS    CLOUDY    44  41  89 SW5       29.78R
DULUTH         PTCLDY    49  44  83 W6        29.82R
RED WING       CLEAR     52  48  87 CALM      29.86S
REDWOOD FALLS  CLOUDY    53  46  77 CALM      29.88S
MANKATO        CLEAR     54  47  77 CALM      29.89F
WORTHINGTON    PTCLDY    48  43  82 CALM      29.91S
FAIRMONT       CLEAR     52  45  77 CALM      29.90S
$$

...SOUTHWEST WISCONSIN...


CITY           SKY/WX    TMP DP  RH WIND       PRES   REMARKS
LA CROSSE      CLEAR     59  57  93 S7        29.87R
PRAIRIE DU CHI FOG       55  53  95 CALM      29.89R VSB<1/4
BOSCOBEL       FOG       52  52 100 SW3       29.90R VSB 1/2
LONE ROCK      FOG       52  51  97 CALM      29.90R VSB<1/4
PLATTEVILLE    CLEAR     52  52 100 CALM      29.90R
FORT MC COY    CLEAR     48  48 100 CALM      29.88R
CAMP DOUGLAS   CLEAR     52  52 100 SE3       29.88R FOG
MAUSTON-NEW LI MOSUNNY   53  52  99 CALM      29.87S FOG
VIROQUA        CLOUDY    56  56 100 N5        29.89R
WIS DELLS        N/A     48  47  95 CALM      29.89R FOG
$$

...ELSEWHERE IN WISCONSIN...


CITY           SKY/WX    TMP DP  RH WIND       PRES   REMARKS
MILWAUKEE      MOCLDY    54  53  97 CALM      29.89R
MADISON        PTCLDY    46  46 100 CALM      29.88S FOG
GREEN BAY      CLEAR     51  51 100 CALM      29.88R FOG
EAU CLAIRE     CLEAR     55  55 100 SW5       29.84R FOG
BLACK RVR FLS  FOG       48  48 100 CALM      29.86R VSB<1/4
MEDFORD        PTCLDY    53  52  96 S6        29.85S
WAUSAU         CLOUDY    52  52 100 SE3       29.85S
WIS RAPIDS     CLEAR     53  52  96 S3        29.88R FOG
MARSHFIELD     CLEAR     53  51  93 CALM      29.85S
RICE LAKE      CLEAR     52  51  97 CALM      29.87R
$$

...NORTHEAST IOWA...


CITY           SKY/WX    TMP DP  RH WIND       PRES   REMARKS
WATERLOO       FOG       51  50  96 CALM      29.89R VSB<1/4
DUBUQUE        CLEAR     51  50  96 CALM      29.90R FOG
DECORAH        FOG       59  59 100 S5        29.89R VSB 1/4
MASON CITY     CLEAR     49  45  86 W3        29.90S
CHARLES CITY   FOG       54  54 100 CALM      29.90R VSB<1/4
OELWEIN        FOG       59  59 100 CALM      29.91R VSB<1/4
$$

...ELSEWHERE IN IOWA...


CITY           SKY/WX    TMP DP  RH WIND       PRES   REMARKS
DES MOINES     CLOUDY    62  60  93 E5        29.87F
IOWA CITY      FOG       53  52  96 CALM      29.90R VSB 1
FORT DODGE     CLOUDY    50  46  87 CALM      29.87F
MARSHALLTOWN   FOG       52  52 100 CALM      29.89R VSB 1/4
CEDAR RAPIDS   FOG       51  51 100 N5        29.89R VSB 1/8
$$

...NORTHERN ILLINOIS...


CITY           SKY/WX    TMP DP  RH WIND       PRES   REMARKS
CHICAGO-OHARE  CLOUDY    52  50  93 N6        29.87S
CHICAGO-MIDWAY CLOUDY    57  55  93 N7        29.87R
MOLINE         FOG       58  56  93 CALM      29.88R VSB 1/2
ROCKFORD       CLEAR     51  49  92 CALM      29.89F FOG
PEORIA         CLOUDY    59  59 100 NW3       29.88R FOG
$$

NOTE: "FAIR" INDICATES FEW OR NO CLOUDS BELOW 12,000 FEET WITH NO
SIGNIFICANT WEATHER AND/OR OBSTRUCTIONS TO VISIBILITY. WIND
SPEEDS ARE IN MILES-PER-HOUR.




USA.gov is the U.S. government's official web portal to all federal, state and local government web resources and services.